Greenville, ME

10:58 PM EDT on August 22, 2017 (GMT -0400)
Greenville

Weather History for KGNR - November, 2012

Change the Weather History Date:

Thursday, November 22, 2012

  Actual Average (KMLT) Record (KMLT)
Temperature  
Mean Temperature 38 °F -  
Max Temperature 50 °F 36 °F 64 °F (1903)
Min Temperature 27 °F 22 °F 2 °F (1978)
Degree Days  
Heating Degree Days 26    
Moisture  
Dew Point 30 °F    
Average Humidity 79    
Maximum Humidity 100    
Minimum Humidity 38    
Precipitation  
Precipitation 0.00 in - - ()
Sea Level Pressure  
Sea Level Pressure 30.17 in    
Wind  
Wind Speed 2 mph (SE)    
Max Wind Speed 7 mph    
Max Gust Speed -    
Averages and records for this station are not official NWS values.
T = Trace of Precipitation, MM = Missing Value Source: NWS Daily Summary

Daily Weather History Graph

Daily Weather History Graph

Search for Another Location

Airport or City:

Trip Planner

Search our weather history database for the weather conditions in past years. The results will help you decide how hot, cold, wet, or windy it might be!

Date:

Astronomy

Nov. 22, 2012 Rise Set
Actual Time 6:47 AM EST 4:01 PM EST
Civil Twilight 6:14 AM EST 4:34 PM EST
Nautical Twilight 5:38 AM EST 5:10 PM EST
Astronomical Twilight 5:02 AM EST 5:45 PM EST
Moon 12:59 PM EST (11/22) 12:48 AM EST (11/22)
Length of Visible Light 10h 19m
Length of Day
9h 14m
Waxing Gibbous, 71% of the Moon is Illuminated
Nov 22
Waxing Gibbous
Nov 28
Full
Dec 6
Last Quarter
Dec 13
New
Dec 20
First Quarter

Hourly Weather History & Observations

Time (EST) Temp. Windchill Dew Point Humidity Pressure Visibility Wind Dir Wind Speed Gust Speed Precip Events Conditions
12:56 AM 30.9 °F - 30.0 °F 96% 30.22 in - Calm Calm - N/A   Unknown
1:56 AM 30.0 °F 26.5 °F 28.9 °F 96% 30.22 in - SSE 3.5 mph - N/A   Unknown
2:56 AM 27.0 °F - 27.0 °F 100% 30.23 in - Calm Calm - N/A   Unknown
3:56 AM 28.0 °F - 28.0 °F 100% 30.22 in - Calm Calm - N/A   Unknown
4:56 AM 27.0 °F 23.0 °F 26.1 °F 96% 30.23 in - NNE 3.5 mph - N/A   Unknown
5:56 AM 28.9 °F - 27.0 °F 92% 30.22 in - Calm Calm - N/A   Unknown
6:56 AM 30.9 °F - 28.0 °F 89% 30.23 in - Calm Calm - N/A   Unknown
7:56 AM 30.9 °F - 28.9 °F 92% 30.23 in - Calm Calm - N/A   Unknown
8:56 AM 39.0 °F - 32.0 °F 76% 30.22 in - Calm Calm - N/A   Unknown
9:56 AM 41.0 °F - 32.0 °F 70% 30.22 in - Calm Calm - N/A   Unknown
10:56 AM 45.0 °F 43.5 °F 28.0 °F 52% 30.19 in - Variable 3.5 mph - N/A   Unknown
11:56 AM 48.9 °F - 24.1 °F 38% 30.16 in - Variable 3.5 mph - N/A   Unknown
12:56 PM 50.0 °F - 30.9 °F 48% 30.15 in - SE 4.6 mph - N/A   Unknown
1:56 PM 48.0 °F - 32.0 °F 54% 30.14 in - SE 6.9 mph - N/A   Unknown
2:56 PM 46.0 °F 44.8 °F 32.0 °F 58% 30.13 in - SE 3.5 mph - N/A   Unknown
3:56 PM 42.1 °F 40.2 °F 30.0 °F 62% 30.14 in - Variable 3.5 mph - N/A   Unknown
4:56 PM 37.9 °F 33.5 °F 30.0 °F 73% 30.15 in - SE 5.8 mph - N/A   Unknown
5:56 PM 35.1 °F - 30.9 °F 85% 30.14 in - Calm Calm - N/A   Unknown
6:56 PM 37.0 °F - 30.9 °F 79% 30.13 in - Calm Calm - N/A   Unknown
7:56 PM 35.1 °F 32.2 °F 30.9 °F 85% 30.12 in - SE 3.5 mph - N/A   Unknown
8:56 PM 34.0 °F 31.0 °F 30.9 °F 89% 30.10 in - SE 3.5 mph - N/A   Unknown
9:56 PM 34.0 °F 31.0 °F 30.9 °F 89% 30.09 in - Variable 3.5 mph - N/A   Unknown
10:56 PM 32.0 °F - 30.9 °F 96% 30.07 in - Calm Calm - N/A   Unknown
11:56 PM 33.1 °F - 28.9 °F 85% 30.05 in - Calm Calm - N/A   Unknown